Retour au catalogue

FENGYUN 1C DEB

ActifSSO
NORAD 31620·DEBRIS·🇨🇳 China

Lancé May 10, 1999 depuis Taiyuan Satellite Launch Center

Loading…

Prochains Passages (prochaines 24 heures)

TLE

VieillissantSource: Space-Track

Époque: Sep 8, 2026, 02:07 UTC

1 31620U 99025CAA 26251.08855867  .00003962  00000-0  12591-2 0  9990
2 31620  98.8824 349.6805 0018154 323.4251  36.5696 14.40419110697188

Suivez FENGYUN 1C DEB en temps réel avec AllMySat

Download on the App Store